Time,TemperatureF,DewpointF,PressureIn,WindDirection,WindDirectionDegrees,WindSpeedMPH,WindSpeedGustMPH,Humidity,HourlyPrecipIn,Conditions,Clouds,dailyrainin,SoftwareType,DateUTC
2013-02-23 00:01:00,24.0,19.0,-100.00,WNW,300,16.0,18.0,80,0.00,,,-99.99,,2013-02-23 06:01:00,
2013-02-23 00:11:00,24.0,19.0,-100.00,WNW,300,14.0,17.0,80,0.00,,,-99.99,,2013-02-23 06:11:00,
2013-02-23 00:22:00,24.0,19.0,-100.00,WNW,300,12.0,17.0,79,0.00,,,-99.99,,2013-02-23 06:22:00,
2013-02-23 00:31:00,24.0,18.0,-100.00,WNW,295,12.0,16.0,79,0.00,,,-99.99,,2013-02-23 06:31:00,
2013-02-23 00:41:00,24.0,18.0,-100.00,WNW,295,12.0,16.0,79,0.00,,,-99.99,,2013-02-23 06:41:00,
2013-02-23 00:51:00,23.0,18.0,-100.00,WNW,295,12.0,14.0,79,0.00,,,-99.99,,2013-02-23 06:51:00,
2013-02-23 01:01:00,23.0,18.0,-100.00,WNW,295,12.0,14.0,79,0.00,,,-99.99,,2013-02-23 07:01:00,
2013-02-23 01:11:00,23.0,18.0,-100.00,WNW,295,12.0,16.0,79,0.00,,,-99.99,,2013-02-23 07:11:00,
2013-02-23 01:21:00,23.0,18.0,-100.00,WNW,295,13.0,16.0,79,0.00,,,-99.99,,2013-02-23 07:21:00,
2013-02-23 01:32:00,23.0,17.0,-100.00,WNW,295,11.0,15.0,79,0.00,,,-99.99,,2013-02-23 07:32:00,
2013-02-23 01:41:00,23.0,17.0,-100.00,WNW,295,11.0,15.0,79,0.00,,,-99.99,,2013-02-23 07:41:00,
2013-02-23 01:51:00,23.0,18.0,-100.00,WNW,295,13.0,16.0,79,0.00,,,-99.99,,2013-02-23 07:51:00,
2013-02-23 02:01:00,23.0,18.0,-100.00,WNW,295,13.0,16.0,79,0.00,,,-99.99,,2013-02-23 08:01:00,
2013-02-23 02:11:00,23.0,18.0,-100.00,WNW,290,12.0,16.0,78,0.00,,,-99.99,,2013-02-23 08:11:00,
2013-02-23 02:21:00,23.0,18.0,-100.00,WNW,295,12.0,16.0,78,0.00,,,-99.99,,2013-02-23 08:21:00,
2013-02-23 02:31:00,23.0,18.0,-100.00,WNW,300,13.0,18.0,78,0.00,,,-99.99,,2013-02-23 08:31:00,
2013-02-23 02:41:00,23.0,18.0,-100.00,WNW,300,13.0,18.0,78,0.00,,,-99.99,,2013-02-23 08:41:00,
2013-02-23 02:52:00,23.0,17.0,-100.00,WNW,295,13.0,16.0,78,0.00,,,-99.99,,2013-02-23 08:52:00,
2013-02-23 03:01:00,23.0,17.0,-100.00,WNW,295,13.0,16.0,78,0.00,,,-99.99,,2013-02-23 09:01:00,
2013-02-23 03:11:00,23.0,17.0,-100.00,WNW,300,14.0,19.0,78,0.00,,,-99.99,,2013-02-23 09:11:00,
2013-02-23 03:21:00,23.0,17.0,-100.00,WNW,300,15.0,18.0,78,0.00,,,-99.99,,2013-02-23 09:21:00,
2013-02-23 03:31:00,23.0,17.0,-100.00,NW,305,13.0,16.0,78,0.00,,,-99.99,,2013-02-23 09:31:00,
2013-02-23 03:41:00,23.0,17.0,-100.00,NW,305,13.0,16.0,78,0.00,,,-99.99,,2013-02-23 09:41:00,
2013-02-23 03:51:00,23.0,17.0,-100.00,NW,305,12.0,16.0,78,0.00,,,-99.99,,2013-02-23 09:51:00,
2013-02-23 04:01:00,23.0,17.0,-100.00,NW,305,12.0,16.0,78,0.00,,,-99.99,,2013-02-23 10:01:00,
2013-02-23 04:11:00,23.0,17.0,-100.00,NW,310,12.0,16.0,77,0.00,,,-99.99,,2013-02-23 10:11:00,
2013-02-23 04:21:00,23.0,17.0,-100.00,NW,310,13.0,16.0,77,0.00,,,-99.99,,2013-02-23 10:21:00,
2013-02-23 04:31:00,23.0,17.0,-100.00,NW,310,11.0,15.0,76,0.00,,,-99.99,,2013-02-23 10:31:00,
2013-02-23 04:41:00,23.0,17.0,-100.00,NW,310,11.0,15.0,76,0.00,,,-99.99,,2013-02-23 10:41:00,
2013-02-23 04:51:00,23.0,17.0,-100.00,NW,310,11.0,14.0,76,0.00,,,-99.99,,2013-02-23 10:51:00,
2013-02-23 05:02:00,23.0,17.0,-100.00,NW,310,8.0,12.0,76,0.00,,,-99.99,,2013-02-23 11:02:00,
2013-02-23 05:11:00,23.0,16.0,-100.00,NW,320,13.0,17.0,75,0.00,,,-99.99,,2013-02-23 11:11:00,
2013-02-23 05:21:00,23.0,16.0,-100.00,NW,315,9.0,18.0,74,0.00,,,-99.99,,2013-02-23 11:21:00,
2013-02-23 05:32:00,23.0,16.0,-100.00,WNW,300,12.0,16.0,73,0.00,,,-99.99,,2013-02-23 11:32:00,
2013-02-23 05:41:00,23.0,16.0,-100.00,WNW,300,12.0,16.0,73,0.00,,,-99.99,,2013-02-23 11:41:00,
2013-02-23 05:52:00,23.0,16.0,-100.00,NW,310,10.0,13.0,74,0.00,,,-99.99,,2013-02-23 11:52:00,
2013-02-23 06:02:00,23.0,16.0,-100.00,NW,310,10.0,13.0,74,0.00,,,-99.99,,2013-02-23 12:02:00,
2013-02-23 06:11:00,23.0,16.0,-100.00,NW,310,9.0,12.0,74,0.00,,,-99.99,,2013-02-23 12:11:00,
2013-02-23 06:21:00,23.0,16.0,-100.00,NW,305,8.0,12.0,74,0.00,,,-99.99,,2013-02-23 12:21:00,
2013-02-23 06:32:00,23.0,16.0,-100.00,WNW,300,11.0,14.0,74,0.00,,,-99.99,,2013-02-23 12:32:00,
2013-02-23 06:42:00,23.0,16.0,-100.00,WNW,300,11.0,14.0,74,0.00,,,-99.99,,2013-02-23 12:42:00,
2013-02-23 06:52:00,23.0,16.0,-100.00,WNW,295,12.0,16.0,74,0.00,,,-99.99,,2013-02-23 12:52:00,
2013-02-23 07:01:00,23.0,16.0,-100.00,WNW,295,12.0,16.0,74,0.00,,,-99.99,,2013-02-23 13:01:00,
2013-02-23 07:11:00,23.0,16.0,-100.00,WNW,295,12.0,16.0,74,0.00,,,-99.99,,2013-02-23 13:11:00,
2013-02-23 07:22:00,23.0,16.0,-100.00,WNW,300,12.0,16.0,74,0.00,,,-99.99,,2013-02-23 13:22:00,
2013-02-23 07:32:00,23.0,16.0,-100.00,WNW,300,13.0,16.0,74,0.00,,,-99.99,,2013-02-23 13:32:00,
2013-02-23 07:42:00,23.0,16.0,-100.00,WNW,300,13.0,16.0,74,0.00,,,-99.99,,2013-02-23 13:42:00,
2013-02-23 07:52:00,23.0,16.0,-100.00,WNW,300,11.0,16.0,74,0.00,,,-99.99,,2013-02-23 13:52:00,
2013-02-23 08:02:00,23.0,16.0,-100.00,WNW,300,11.0,16.0,74,0.00,,,-99.99,,2013-02-23 14:02:00,
2013-02-23 08:11:00,23.0,16.0,-100.00,WNW,300,14.0,17.0,74,0.00,,,-99.99,,2013-02-23 14:11:00,
2013-02-23 08:21:00,23.0,16.0,-100.00,WNW,290,13.0,17.0,74,0.00,,,-99.99,,2013-02-23 14:21:00,
2013-02-23 08:32:00,23.0,16.0,-100.00,WNW,295,12.0,17.0,73,0.00,,,-99.99,,2013-02-23 14:32:00,
2013-02-23 08:41:00,23.0,16.0,-100.00,WNW,295,12.0,17.0,73,0.00,,,-99.99,,2013-02-23 14:41:00,
2013-02-23 08:52:00,24.0,16.0,-100.00,WNW,295,14.0,17.0,72,0.00,,,-99.99,,2013-02-23 14:52:00,
2013-02-23 09:01:00,24.0,16.0,-100.00,WNW,295,14.0,17.0,72,0.00,,,-99.99,,2013-02-23 15:01:00,
2013-02-23 09:11:00,24.0,16.0,-100.00,WNW,295,13.0,18.0,72,0.00,,,-99.99,,2013-02-23 15:11:00,
2013-02-23 09:21:00,24.0,16.0,-100.00,WNW,295,15.0,18.0,72,0.00,,,-99.99,,2013-02-23 15:21:00,
2013-02-23 09:32:00,25.0,17.0,-100.00,NW,305,12.0,18.0,70,0.00,,,-99.99,,2013-02-23 15:32:00,
2013-02-23 09:41:00,25.0,17.0,-100.00,NW,305,12.0,18.0,70,0.00,,,-99.99,,2013-02-23 15:41:00,
2013-02-23 09:51:00,26.0,17.0,-100.00,NW,305,15.0,19.0,69,0.00,,,-99.99,,2013-02-23 15:51:00,
2013-02-23 10:01:00,26.0,17.0,-100.00,NW,305,15.0,19.0,69,0.00,,,-99.99,,2013-02-23 16:01:00,
2013-02-23 10:11:00,26.0,17.0,-100.00,NW,310,12.0,20.0,68,0.00,,,-99.99,,2013-02-23 16:11:00,
2013-02-23 10:21:00,26.0,17.0,-100.00,NW,305,12.0,19.0,67,0.00,,,-99.99,,2013-02-23 16:21:00,
2013-02-23 10:31:00,26.0,16.0,-100.00,NW,315,14.0,19.0,67,0.00,,,-99.99,,2013-02-23 16:31:00,
2013-02-23 10:42:00,26.0,16.0,-100.00,NW,315,14.0,19.0,67,0.00,,,-99.99,,2013-02-23 16:42:00,
2013-02-23 10:51:00,26.0,17.0,-100.00,NW,310,14.0,19.0,65,0.00,,,-99.99,,2013-02-23 16:51:00,
2013-02-23 11:01:00,26.0,17.0,-100.00,NW,310,14.0,19.0,65,0.00,,,-99.99,,2013-02-23 17:01:00,
2013-02-23 11:11:00,27.0,17.0,-100.00,NW,310,16.0,19.0,65,0.00,,,-99.99,,2013-02-23 17:11:00,
2013-02-23 11:21:00,27.0,17.0,-100.00,NW,310,16.0,21.0,65,0.00,,,-99.99,,2013-02-23 17:21:00,
2013-02-23 11:31:00,27.0,17.0,-100.00,NW,305,14.0,17.0,63,0.00,,,-99.99,,2013-02-23 17:31:00,
2013-02-23 11:41:00,27.0,17.0,-100.00,NW,305,14.0,17.0,63,0.00,,,-99.99,,2013-02-23 17:41:00,
2013-02-23 11:52:00,29.0,17.0,-100.00,NW,310,13.0,17.0,62,0.00,,,-99.99,,2013-02-23 17:52:00,
2013-02-23 12:01:00,29.0,17.0,-100.00,NW,310,13.0,17.0,62,0.00,,,-99.99,,2013-02-23 18:01:00,
2013-02-23 12:12:00,28.0,17.0,-100.00,NW,315,10.0,16.0,60,0.00,,,-99.99,,2013-02-23 18:12:00,
2013-02-23 12:21:00,29.0,17.0,-100.00,NW,320,10.0,14.0,60,0.00,,,-99.99,,2013-02-23 18:21:00,
2013-02-23 12:32:00,30.0,17.0,-100.00,NW,305,9.0,12.0,58,1.13,,,-99.99,,2013-02-23 18:32:00,
2013-02-23 12:41:00,30.0,17.0,-100.00,NW,305,9.0,12.0,58,1.13,,,-99.99,,2013-02-23 18:41:00,
2013-02-23 12:51:00,30.0,17.0,-100.00,NW,310,10.0,13.0,57,1.18,,,-99.99,,2013-02-23 18:51:00,
2013-02-23 13:01:00,30.0,17.0,-100.00,NW,310,10.0,13.0,57,1.18,,,-99.99,,2013-02-23 19:01:00,
2013-02-23 13:11:00,29.0,16.0,-100.00,WNW,290,12.0,14.0,57,1.15,,,-99.99,,2013-02-23 19:11:00,
2013-02-23 13:21:00,29.0,16.0,-100.00,WNW,295,12.0,14.0,57,1.19,,,-99.99,,2013-02-23 19:21:00,
2013-02-23 13:32:00,29.0,17.0,-100.00,WNW,295,14.0,16.0,58,1.18,,,-99.99,,2013-02-23 19:32:00,
2013-02-23 13:41:00,29.0,17.0,-100.00,WNW,295,14.0,16.0,58,1.18,,,-99.99,,2013-02-23 19:41:00,
2013-02-23 13:51:00,30.0,17.0,-100.00,NW,315,12.0,17.0,58,1.18,,,-99.99,,2013-02-23 19:51:00,
2013-02-23 14:01:00,30.0,17.0,-100.00,NW,315,12.0,17.0,58,1.18,,,-99.99,,2013-02-23 20:01:00,
2013-02-23 14:11:00,31.0,17.0,-100.00,NW,310,12.0,16.0,57,1.22,,,-99.99,,2013-02-23 20:11:00,
2013-02-23 14:21:00,31.0,17.0,-100.00,NW,310,13.0,16.0,56,1.20,,,-99.99,,2013-02-23 20:21:00,
2013-02-23 14:32:00,29.0,16.0,-100.00,WNW,290,14.0,17.0,57,1.19,,,-99.99,,2013-02-23 20:32:00,
2013-02-23 14:41:00,29.0,16.0,-100.00,WNW,290,14.0,17.0,57,1.19,,,-99.99,,2013-02-23 20:41:00,
2013-02-23 14:52:00,30.0,17.0,-100.00,WNW,300,13.0,16.0,57,1.20,,,-99.99,,2013-02-23 20:52:00,
2013-02-23 15:01:00,30.0,17.0,-100.00,WNW,300,13.0,16.0,57,1.20,,,-99.99,,2013-02-23 21:01:00,
2013-02-23 15:11:00,31.0,17.0,-100.00,WNW,300,11.0,14.0,57,1.30,,,-99.99,,2013-02-23 21:11:00,
2013-02-23 15:22:00,30.0,17.0,-100.00,WNW,300,12.0,14.0,57,1.22,,,-99.99,,2013-02-23 21:22:00,
2013-02-23 15:31:00,29.0,17.0,-100.00,WNW,290,9.0,15.0,58,1.22,,,-99.99,,2013-02-23 21:31:00,
2013-02-23 15:41:00,29.0,17.0,-100.00,WNW,290,9.0,15.0,58,1.22,,,-99.99,,2013-02-23 21:41:00,
2013-02-23 15:51:00,29.0,17.0,-100.00,WNW,295,12.0,14.0,59,0.00,,,-99.99,,2013-02-23 21:51:00,
2013-02-23 16:01:00,29.0,17.0,-100.00,WNW,295,12.0,14.0,59,0.00,,,-99.99,,2013-02-23 22:01:00,
2013-02-23 16:11:00,29.0,17.0,-100.00,WNW,295,10.0,14.0,59,0.00,,,-99.99,,2013-02-23 22:11:00,
2013-02-23 16:21:00,29.0,17.0,-100.00,WNW,300,11.0,14.0,60,0.00,,,-99.99,,2013-02-23 22:21:00,
2013-02-23 16:31:00,28.0,17.0,-100.00,WNW,290,12.0,16.0,60,0.00,,,-99.99,,2013-02-23 22:31:00,
2013-02-23 16:41:00,28.0,17.0,-100.00,WNW,290,12.0,16.0,60,0.00,,,-99.99,,2013-02-23 22:41:00,
2013-02-23 16:51:00,28.0,17.0,-100.00,WNW,295,11.0,12.0,62,0.00,,,-99.99,,2013-02-23 22:51:00,
2013-02-23 17:01:00,28.0,17.0,-100.00,WNW,295,11.0,12.0,62,0.00,,,-99.99,,2013-02-23 23:01:00,
2013-02-23 17:11:00,28.0,17.0,-100.00,WNW,295,9.0,11.0,63,0.00,,,-99.99,,2013-02-23 23:11:00,
2013-02-23 17:21:00,27.0,17.0,-100.00,WNW,295,9.0,11.0,63,0.00,,,-99.99,,2013-02-23 23:21:00,
2013-02-23 17:31:00,26.0,16.0,-100.00,WNW,290,9.0,9.0,65,0.00,,,-99.99,,2013-02-23 23:31:00,
2013-02-23 17:41:00,26.0,16.0,-100.00,WNW,290,9.0,9.0,65,0.00,,,-99.99,,2013-02-23 23:41:00,
2013-02-23 17:52:00,25.0,16.0,-100.00,WNW,295,7.0,9.0,66,0.00,,,-99.99,,2013-02-23 23:52:00,
2013-02-23 18:01:00,25.0,16.0,-100.00,WNW,295,7.0,9.0,66,0.00,,,-99.99,,2013-02-24 00:01:00,
2013-02-23 18:11:00,24.0,15.0,-100.00,WNW,295,7.0,9.0,67,0.00,,,-99.99,,2013-02-24 00:11:00,
2013-02-23 18:22:00,24.0,15.0,-100.00,NW,305,7.0,7.0,67,0.00,,,-99.99,,2013-02-24 00:22:00,
2013-02-23 18:32:00,22.0,14.0,-100.00,WNW,285,5.0,6.0,68,0.00,,,-99.99,,2013-02-24 00:32:00,
2013-02-23 18:42:00,22.0,14.0,-100.00,WNW,285,5.0,6.0,68,0.00,,,-99.99,,2013-02-24 00:42:00,
2013-02-23 18:52:00,21.0,13.0,-100.00,West,280,6.0,7.0,69,0.00,,,-99.99,,2013-02-24 00:52:00,
2013-02-23 19:01:00,21.0,13.0,-100.00,West,280,6.0,7.0,69,0.00,,,-99.99,,2013-02-24 01:01:00,
2013-02-23 19:11:00,21.0,13.0,-100.00,WNW,300,5.0,7.0,69,0.00,,,-99.99,,2013-02-24 01:11:00,
2013-02-23 19:22:00,21.0,13.0,-100.00,WNW,295,3.0,6.0,69,0.00,,,-99.99,,2013-02-24 01:22:00,
2013-02-23 19:31:00,20.0,12.0,-100.00,West,280,2.0,4.0,70,0.00,,,-99.99,,2013-02-24 01:31:00,
2013-02-23 19:41:00,20.0,12.0,-100.00,West,280,2.0,4.0,70,0.00,,,-99.99,,2013-02-24 01:41:00,
2013-02-23 19:51:00,20.0,13.0,-100.00,West,275,3.0,4.0,71,0.00,,,-99.99,,2013-02-24 01:51:00,
2013-02-23 20:01:00,20.0,13.0,-100.00,West,275,3.0,4.0,71,0.00,,,-99.99,,2013-02-24 02:01:00,
2013-02-23 20:11:00,20.0,13.0,-100.00,WSW,255,1.0,2.0,71,0.00,,,-99.99,,2013-02-24 02:11:00,
2013-02-23 20:21:00,21.0,13.0,-100.00,WSW,250,1.0,2.0,71,0.00,,,-99.99,,2013-02-24 02:21:00,
2013-02-23 20:32:00,22.0,14.0,-100.00,West,280,0.0,1.0,72,0.00,,,-99.99,,2013-02-24 02:32:00,
2013-02-23 20:41:00,22.0,14.0,-100.00,West,280,0.0,1.0,72,0.00,,,-99.99,,2013-02-24 02:41:00,
2013-02-23 20:52:00,21.0,14.0,-100.00,SE,125,0.0,1.0,72,0.00,,,-99.99,,2013-02-24 02:52:00,
2013-02-23 21:01:00,21.0,14.0,-100.00,SE,125,0.0,1.0,72,0.00,,,-99.99,,2013-02-24 03:01:00,
2013-02-23 21:11:00,22.0,14.0,-100.00,South,185,0.0,0.0,73,0.00,,,-99.99,,2013-02-24 03:11:00,
2013-02-23 21:21:00,21.0,14.0,-100.00,SSW,195,1.0,1.0,73,0.00,,,-99.99,,2013-02-24 03:21:00,
2013-02-23 21:32:00,21.0,14.0,-100.00,SW,220,3.0,4.0,74,0.00,,,-99.99,,2013-02-24 03:32:00,
2013-02-23 21:42:00,21.0,14.0,-100.00,SW,220,3.0,4.0,74,0.00,,,-99.99,,2013-02-24 03:42:00,
2013-02-23 21:52:00,21.0,15.0,-100.00,SW,215,4.0,4.0,75,0.00,,,-99.99,,2013-02-24 03:52:00,
2013-02-23 22:01:00,21.0,15.0,-100.00,SW,215,4.0,4.0,75,0.00,,,-99.99,,2013-02-24 04:01:00,
2013-02-23 22:11:00,22.0,15.0,-100.00,SW,230,4.0,4.0,76,0.00,,,-99.99,,2013-02-24 04:11:00,
2013-02-23 22:21:00,21.0,15.0,-100.00,WSW,245,4.0,5.0,76,0.00,,,-99.99,,2013-02-24 04:21:00,
2013-02-23 22:31:00,21.0,15.0,-100.00,WSW,245,4.0,5.0,76,0.00,,,-99.99,,2013-02-24 04:31:00,
2013-02-23 22:41:00,21.0,15.0,-100.00,WSW,245,4.0,5.0,76,0.00,,,-99.99,,2013-02-24 04:41:00,
2013-02-23 22:51:00,20.0,15.0,-100.00,SW,220,2.0,4.0,77,0.00,,,-99.99,,2013-02-24 04:51:00,
2013-02-23 23:01:00,20.0,15.0,-100.00,SW,220,2.0,4.0,77,0.00,,,-99.99,,2013-02-24 05:01:00,
2013-02-23 23:11:00,19.0,13.0,-100.00,SW,215,1.0,1.0,78,0.00,,,-99.99,,2013-02-24 05:11:00,
2013-02-23 23:22:00,19.0,13.0,-100.00,SSW,205,1.0,1.0,78,0.00,,,-99.99,,2013-02-24 05:22:00,
2013-02-23 23:32:00,19.0,13.0,-100.00,SW,235,3.0,3.0,78,0.00,,,-99.99,,2013-02-24 05:32:00,
2013-02-23 23:42:00,19.0,13.0,-100.00,SW,235,3.0,3.0,78,0.00,,,-99.99,,2013-02-24 05:42:00,
2013-02-23 23:52:00,18.0,13.0,-100.00,WSW,255,3.0,4.0,79,0.00,,,-99.99,,2013-02-24 05:52:00,